EW8214 Weather Reports


time (UTC)temp
C
wind
direction
speed
KPH
gust
KPH
rain 1hr
cm
rain 24hr
cm
rain mn
cm
humidity
%
barometer
mb
20260506154540 16 290 0.0 4.8 0.00 0.00 0.00 80 1017.1
20260506153035 15 303 0.0 4.8 0.00 0.00 0.00 81 1017.2
20260506151531 14 298 0.0 4.8 0.00 0.00 0.00 86 1017.2
20260506150027 13 306 0.0 3.2 0.00 0.00 0.00 89 1017.3
20260506144531 13 306 0.0 1.6 0.00 0.00 0.00 94 1017.2
20260506143025 12 307 0.0 1.6 0.00 0.00 0.00 97 1017.1
20260506141518 10 307 0.0 1.6 0.00 0.00 0.00 97 1016.9
20260506140018 9 307 0.0 3.2 0.00 0.00 0.00 96 1016.9
20260506134517 9 306 0.0 3.2 0.00 0.00 0.00 96 1016.9
20260506133016 8 306 0.0 1.6 0.00 0.00 0.00 96 1016.9
20260506131516 8 306 0.0 1.6 0.00 0.00 0.00 95 1016.6
20260506130013 8 306 0.0 0.0 0.00 0.00 0.00 95 1016.3
20260506124511 8 306 0.0 1.6 0.00 0.00 0.00 95 1016.3
20260506123011 8 306 0.0 1.6 0.00 0.00 0.00 95 1016.3
20260506121512 8 306 0.0 1.6 0.00 0.00 0.00 94 1016.3
20260506120014 8 306 0.0 0.0 0.00 0.00 0.00 94 1016.4
20260506114506 8 306 0.0 1.6 0.00 0.00 0.00 94 1016.5
20260506113007 9 306 0.0 1.6 0.00 0.00 0.00 94 1016.5
20260506111504 9 306 0.0 0.0 0.00 0.00 0.00 94 1016.4
20260506110003 9 306 0.0 1.6 0.00 0.00 0.00 94 1016.5
20260506104501 10 306 0.0 0.0 0.00 0.00 0.00 94 1016.3
20260506103102 10 306 0.0 0.0 0.00 0.00 0.00 95 1016.3
20260506101617 10 306 0.0 1.6 0.00 0.00 0.00 94 1016.2
20260506100119 10 306 0.0 3.2 0.00 0.00 0.00 94 1016.2
20260506094555 10 306 0.0 0.0 0.00 0.00 0.00 94 1016.3
20260506093054 10 306 0.0 0.0 0.00 0.00 0.00 94 1016.3
20260506091553 10 306 0.0 0.0 0.00 0.00 0.00 94 1016.5
20260506090052 11 306 0.0 0.0 0.00 0.00 0.00 94 1016.4
20260506084614 11 306 0.0 0.0 0.00 0.00 0.00 93 1016.6
20260506083049 11 306 0.0 0.0 0.00 0.00 0.00 93 1016.5
20260506081553 11 306 0.0 0.0 0.00 0.00 0.00 92 1016.7
20260506073047 11 306 0.0 0.0 0.00 0.00 0.00 91 1016.5
20260506071539 12 306 0.0 0.0 0.00 0.00 0.00 91 1016.4
20260506061533 12 307 0.0 1.6 0.00 0.00 0.00 90 1016.1
20260506044551 13 308 0.0 3.2 0.00 0.00 0.00 87 1015.4
20260506043025 13 309 0.0 1.6 0.00 0.00 0.00 86 1015.4
20260506041525 13 309 0.0 1.6 0.00 0.00 0.00 85 1015.2
20260506040025 13 310 0.0 3.2 0.00 0.00 0.00 85 1015.0
20260506034543 13 310 0.0 1.6 0.00 0.00 0.00 84 1014.9
20260506033019 13 300 1.6 4.8 0.00 0.00 0.00 83 1014.6
20260506031519 13 292 1.6 4.8 0.00 0.00 0.00 82 1014.5
20260506030019 14 300 0.0 6.4 0.00 0.00 0.00 81 1014.2
20260506024516 14 302 0.0 4.8 0.00 0.00 0.00 81 1013.9
20260506023016 14 271 0.0 3.2 0.00 0.00 0.00 82 1013.7
20260506021515 15 250 1.6 6.4 0.00 0.00 0.00 80 1013.7
20260506020015 15 277 0.0 6.4 0.00 0.00 0.00 80 1013.5
20260506014517 15 236 1.6 14.5 0.00 0.00 0.00 79 1013.3
20260506013014 15 260 1.6 11.3 0.00 0.00 0.00 78 1013.3
20260506011517 16 250 1.6 12.9 0.00 0.00 0.00 77 1013.3
20260506010014 16 313 1.6 12.9 0.00 0.00 0.00 77 1013.4
20260506004528 16 251 1.6 11.3 0.00 0.00 0.00 77 1013.3
20260506003013 16 254 1.6 8.0 0.00 0.00 0.00 77 1013.1
20260506001511 16 275 1.6 8.0 0.00 0.00 0.00 78 1013.1
20260506000011 16 252 1.6 12.9 0.00 0.00 0.00 78 1013.1
20260505234515 17 242 1.6 14.5 0.00 0.00 0.00 78 1013.0
20260505233011 16 248 1.6 12.9 0.00 0.00 0.00 77 1013.2
20260505231510 17 267 3.2 14.5 0.00 0.00 0.00 76 1013.3
20260505230009 17 254 1.6 14.5 0.00 0.00 0.00 76 1013.3
20260505224508 17 254 1.6 12.9 0.00 0.00 0.00 74 1013.4
20260505223006 17 332 1.6 16.1 0.00 0.00 0.00 74 1013.5
20260505221507 17 252 1.6 12.9 0.00 0.00 0.00 73 1013.6
20260505220013 17 280 1.6 11.3 0.00 0.00 0.00 72 1013.7
20260505214505 17 245 1.6 12.9 0.00 0.00 0.00 75 1014.0
20260505213004 16 273 3.2 12.9 0.00 0.00 0.00 74 1014.1
20260505211505 16 297 1.6 14.5 0.00 0.00 0.00 73 1014.1
20260505210003 16 267 1.6 12.9 0.00 0.00 0.00 72 1014.1
20260505204502 17 273 1.6 12.9 0.00 0.00 0.00 70 1014.1
20260505203002 16 250 4.8 19.3 0.00 0.00 0.00 72 1014.3
20260505201501 17 267 1.6 8.0 0.00 0.00 0.00 72 1014.4
20260505200105 16 238 3.2 16.1 0.00 0.00 0.00 74 1014.3
20260505194600 17 275 3.2 16.1 0.00 0.00 0.00 71 1014.3
20260505193100 17 242 3.2 16.1 0.00 0.00 0.00 71 1014.3
20260505191601 17 255 1.6 14.5 0.00 0.00 0.00 71 1014.3
20260505190056 17 238 1.6 14.5 0.00 0.00 0.00 72 1014.4
20260505184601 17 301 1.6 11.3 0.00 0.00 0.00 71 1014.3
20260505183052 17 281 3.2 12.9 0.00 0.00 0.00 72 1014.4
20260505181548 17 254 3.2 12.9 0.00 0.00 0.00 72 1014.2
20260505180053 17 247 3.2 12.9 0.00 0.00 0.00 71 1014.2
20260505174600 17 308 0.0 12.9 0.00 0.00 0.00 72 1014.0
20260505173040 17 295 3.2 11.3 0.00 0.00 0.00 71 1013.8
20260505171539 17 296 1.6 8.0 0.00 0.00 0.00 71 1013.8
20260505170043 17 250 0.0 6.4 0.00 0.00 0.00 74 1013.9
20260505164536 16 305 1.6 8.0 0.00 0.00 0.00 72 1014.0
20260505163037 16 308 0.0 8.0 0.00 0.00 0.00 74 1014.0
20260505161528 15 247 1.6 8.0 0.00 0.00 0.00 75 1013.9